This is the latest recevied weather packets stored in our database for station/object KB7KFC-3. If no packets are shown the sender has not sent any weather packets the latest 10 day(s).
| Time | Temp. | Humidity | Pressure | Rain* | Wind** | Luminosity | Snow |
|---|---|---|---|---|---|---|---|
| 1777912444 | 24.44° C | 30% | 1012.7 hPa | 0 mm | - | - | - |
| 1777912265 | 24.44° C | 30% | 1012.7 hPa | 0 mm | - | - | - |
| 1777912084 | 24.44° C | 30% | 1012.6 hPa | 0 mm | - | - | - |
| 1777911545 | 24.44° C | 32% | 1012.8 hPa | 0 mm | - | - | - |
| 1777911185 | 24.44° C | 33% | 1012.9 hPa | 0 mm | - | - | - |
| 1777910824 | 23.89° C | 33% | 1012.6 hPa | 0 mm | - | - | - |
| 1777909745 | 23.89° C | 34% | 1012.7 hPa | 0 mm | - | - | - |
| 1777909385 | 23.33° C | 34% | 1012.7 hPa | 0 mm | - | - | - |
| 1777909205 | 23.33° C | 33% | 1012.8 hPa | 0 mm | - | - | - |
| 1777909024 | 23.33° C | 33% | 1012.7 hPa | 0 mm | - | - | - |
| 1777908844 | 23.33° C | 34% | 1012.7 hPa | 0 mm | - | - | - |
| 1777908665 | 23.33° C | 33% | 1012.6 hPa | 0 mm | - | - | - |
| 1777908484 | 23.33° C | 33% | 1012.5 hPa | 0 mm | - | - | - |
| 1777907585 | 23.33° C | 33% | 1012.3 hPa | 0 mm | - | - | - |
| 1777907225 | 22.78° C | 33% | 1012.1 hPa | 0 mm | - | - | - |
| 1777907045 | 22.78° C | 32% | 1012.1 hPa | 0 mm | - | - | - |
| 1777906684 | 22.78° C | 35% | 1012 hPa | 0 mm | - | - | - |
| 1777906144 | 22.78° C | 42% | 1011.9 hPa | 0 mm | - | - | - |
| 1777905785 | 22.22° C | 44% | 1011.9 hPa | 0 mm | - | - | - |
| 1777905604 | 22.22° C | 44% | 1011.9 hPa | 0 mm | - | - | - |
| 1777905425 | 22.22° C | 44% | 1011.9 hPa | 0 mm | - | - | - |
| 1777905245 | 22.22° C | 44% | 1012 hPa | 0 mm | - | - | - |
| 1777905065 | 22.22° C | 44% | 1012 hPa | 0 mm | - | - | - |
| 1777904885 | 22.22° C | 44% | 1011.9 hPa | 0 mm | - | - | - |
| 1777904524 | 21.67° C | 44% | 1011.8 hPa | 0 mm | - | - | - |
* Rain latest hour (hover to see other rain measurements)
** Current wind speed in m/s (hover to see current wind gust speed)